HULIANWANG DIGUI-57 (65114 NORAD) Tracking and Keplerian Element Data

This shows tracking and keplerian element data for the satellite.

Feedback or suggestion? Click here.




ElementValue
Catalog65114
NameHULIANWANG DIGUI-57
Epoch Orbit1889
Epoch Day354.16773783
Epoch Year2025
RAAN247.4397
Inclination50.0008
Eccentricity0.000903
Argument of Perigee298.8565
Mean Anonmoly61.14
Mean Motion13.29326258
Decay Rate-4.7E-07
L11 65114U 25168J 25354.16773783 -.00000047 00000+0 16533-3 0 9992
L22 65114 50.0008 247.4397 0009030 298.8565 61.1400 13.29326258 18892



Live tracking and technical data element details for HULIANWANG DIGUI-57 (NORAD 65114). HULIANWANG DIGUI-57 can be tracked NOW for your location showing map with azimuth and elevation plus other details from your city location.







IsCatalogInMostPopularTable: catalog: 65114, numindb: 2
Update: records affected: 1



GetName: 65114 HULIANWANG DIGUI-57

Hit Count: updated at: Sat, 11 Apr 2026 21:29:35 GMT